ARIANE 2 DEB, 27649

Orbit data source: Space-Track

ARIANE 2 DEB, 27649 is space debris in HEO originally from a launch on Fri, 27 Jan 1989 UTC launched from the French Guiana (FRGUI). Debris objects in space refer to the collection of defunct objects orbiting the Earth. Examples of debris include non-operational satellites, rocket bodies, and fragments generated from explosions, collisions, or faulty payload assembly.

Loading next visibility...
Identifier
27649, 1989-006AD
Orbit
HEO
Last TLE update
6 days ago
Origin
Manufacturer
EADS/LV
Mission
Spacecraft
Bus & Motor
Unknown
Mass
Unknown
Launch date (UTC)
1989-01-27 (36 years ago)
Launch vehicle
Unknown
Launch site
French Guiana (FRGUI)
Object type
Payload
Rocket body
Debris
Shape & HBR
Unknown
Radar Cross Section
Medium (>0.1 m² and <1 m²)

Expand to show TLE details & history

TLE from 6 days ago
0 ARIANE 2 DEB
1 27649U 89006AD  25177.04120247 -.00000156  00000-0  00000-0 0  9996
2 27649   8.6153 334.7942 6982848 302.4921 299.4963  2.22829205 97887
Epoch: 2025-06-26T00:59Z
TLE epoch observation values (Epoch: 2025-06-26T00:59:19.893Z)
Latitude
2.74536°
Longitude
-152.87594°
Altitude
21,369.432 km
Speed
3.554 km/s
True Right ascension
09h 05m 29s
True Declination
2° 44' 28"
Sunlit
Object was in daylight at epoch
Visualization orbit readout
Latitude
4.98703°
Longitude
-171.51107°
Altitude
31,319.561 km
Speed
2.247 km/s
Apparent Right ascension
07h 38m 05s
Apparent Declination
-1° 05' 23"
Sunlit
Object is in daylight
Visualization observer readout
Local Sidereal Time
17:56:21
Azimuth
322.754° NNW
Elevation
-44.807°
Doppler factor
1
Orbital elements
Apogee altitude
35,679.683 km
Perigee altitude
1,093.804 km
Semi-major axis
24,764.88 km
Eccentricity
0.69828
Inclination
8.6153°
RAAN
334.7942°
Arg. of periapsis
302.4921°
True anomaly
Unknown
Mean anomaly
299.4963°
Eccentric anomaly
Unknown
Mean motion
0.55691 °/min
Orbital period
646.42 mins
BSTAR
0
Loading maneuver chart data...
Loading SW <> Apogee altitude chart data...
Loading historical data...
Loading historical data...
Loading historical data...
Loading historical data...
Loading historical data...
Loading historical data...
Loading historical data...

ARIANE 2 DEB Visibility forecast

Observer location: undefined°, undefined°

Span
Click to sort rows by Start time (UTC) header in descending order
Start Az.
Max El. time (UTC)
Max El. Az.
Max El.
End time (UTC)
End Az.
373 mins2025-07-02 13:02:39.400Z95.899° ESE2025-07-02 17:23:39.400Z118.973° SE24.379°2025-07-02 19:15:39.400Z117.384° SE
|